RH
50 50 54 54 50 42 44 48 45 39 38 42 42 42 40 41 37 28 28 45 73 88 97 91 89 94 86 80 68 68 69 72 75 66 67 55 45 40 39 40 36 34 29 36
55 49 51 54 52 49 41 43 42 40 40 40 44 45 44 41 32 29 31 58 89 99 100 98 98 94 97 88 81 74 70 67 67 70 62 53 46 40 38 39 37 33 24 30
51 50 54 59 59 52 45 41 41 40 43 41 40 40 43 42 34 32 38 60 86 100 100 99 99 91 91 88 77 75 79 71 90 87 70 53 45 42 44 40 43 43 38 36
52 57 58 57 53 50 49 46 44 41 36 35 33 35 37 33 28 32 47 66 83 92 98 100 92 96 99 80 75 73 68 71 82 84 56 50 42 44 47 51 54 47 51 41
46 51 54 52 49 46 46 46 43 35 32 35 39 36 35 32 35 40 53 66 87 92 100 98 100 92 80 71 62 60 54 62 68 63 52 48 50 56 54 68 73 63 45 40
42 45 45 46 48 48 45 41 34 34 36 36 39 41 41 36 44 55 75 83 85 92 98 87 79 79 74 62 56 57 63 68 65 56 54 54 63 69 82 79 81 83 70 36
39 42 47 51 50 46 42 39 37 35 33 33 36 42 43 44 57 61 67 68 74 77 78 77 75 73 60 64 61 65 73 74 69 60 61 67 81 96 86 84 84 78 69 45
35 39 46 47 42 37 37 37 37 33 35 36 39 42 49 70 73 70 62 67 72 67 71 72 76 64 58 56 54 72 78 72 65 71 83 90 88 81 81 82 67 59 60 47
33 36 38 37 35 33 31 32 35 38 37 43 41 55 71 72 67 60 68 66 62 64 66 67 58 50 56 60 83 84 72 72 84 100 100 97 88 77 68 64 56 53 50 45
35 34 37 36 36 34 30 32 34 41 44 47 40 60 68 77 70 72 64 53 51 58 59 56 56 72 79 99 90 82 81 87 100 100 99 97 86 70 55 61 63 56 48 41
32 32 32 33 32 30 34 35 41 48 49 47 42 80 81 92 79 70 58 62 68 63 69 78 81 87 97 90 92 97 98 98 96 95 92 86 75 59 44 58 64 60 52 43
32 31 29 28 28 33 37 44 50 44 43 46 81 87 100 90 77 73 83 88 85 83 80 93 100 100 100 98 100 100 100 93 82 71 67 74 75 60 43 42 57 60 51 44
45 45 40 36 44 45 46 52 56 62 72 87 82 97 84 76 76 91 97 94 98 100 100 100 100 100 100 100 100 90 82 84 78 71 67 58 60 62 50 38 43 50 50 42
61 61 64 54 63 67 67 66 71 90 96 88 82 82 89 83 100 98 97 100 100 100 100 100 99 100 100 100 92 80 76 66 71 74 62 56 58 58 53 38 38 42 41 38
73 64 67 59 60 62 62 68 94 95 86 89 96 96 94 100 100 100 100 90 83 89 95 94 98 100 97 96 90 74 75 81 68 69 68 58 54 46 39 38 35 35 35 35
88 65 59 52 70 72 58 72 78 76 89 87 94 99 90 93 88 88 85 88 100 100 99 94 96 88 89 83 79 69 60 58 60 56 50 51 45 40 36 35 36 36 34 32
78 74 72 60 69 61 56 63 61 60 61 71 78 88 93 87 88 90 90 98 95 95 98 86 90 88 79 62 58 54 55 52 48 50 50 42 34 32 31 30 29 26 24 21
82 87 82 74 75 60 55 52 51 51 52 53 63 72 75 87 82 88 86 72 79 75 70 63 52 47 50 48 47 45 45 47 38 31 28 27 27 26 25 23 20 18 16 16
69 60 56 56 57 58 55 51 52 51 51 64 70 69 75 62 62 75 71 65 49 42 49 45 32 30 33 43 44 43 38 32 27 24 24 24 24 21 18 15 14 15 15 15
51 53 52 52 48 43 45 53 53 55 59 61 63 59 59 58 38 38 34 36 35 36 43 34 25 27 32 33 32 32 28 23 23 23 23 21 17 14 13 13 14 14 14 14
45 44 48 53 68 52 52 52 48 47 47 43 40 37 30 26 31 36 39 42 51 49 34 25 27 27 23 23 22 22 21 21 21 19 17 13 12 12 14 14 14 14 15 16
45 43 49 57 56 59 72 72 75 50 38 37 36 35 35 34 35 37 42 42 46 42 27 25 26 23 21 20 19 19 18 16 15 14 13 12 13 13 13 14 15 15 14 13
52 47 53 56 59 58 62 65 57 53 50 46 49 46 38 37 41 45 42 35 28 24 22 21 21 22 22 19 18 15 13 13 14 14 14 14 14 14 14 14 12 12 12 12
43 44 45 52 60 66 51 48 44 48 48 49 56 52 39 29 30 32 26 24 23 22 21 21 21 21 19 15 13 12 13 14 14 14 14 14 14 12 11 12 12 13 13 12
42 45 60 64 61 64 62 54 47 43 48 47 31 23 22 22 22 22 24 22 22 22 21 20 19 15 12 13 14 14 14 13 14 14 13 12 12 13 14 13 12 12 11 11
51 56 53 45 46 41 45 44 36 31 27 30 28 25 22 22 23 23 24 22 22 21 18 15 13 12 14 15 14 13 14 15 13 12 13 14 14 12 11 11 12 10 11 11
Wind_Speed
34 35 37 37 36 37 40 41 41 45 46 49 53 57 59 59 56 56 54 43 42 46 48 52 54 59 60 63 64 66 69 70 72 74 77 80 79 77 74 66 58 41 39 38
39 39 41 42 42 42 43 47 48 48 51 51 57 60 64 64 61 60 57 42 42 48 51 54 58 62 64 65 66 69 74 74 76 79 82 83 83 81 76 67 56 47 47 44
43 44 46 47 48 48 49 50 52 51 53 59 58 58 68 70 66 66 60 47 46 50 55 60 62 65 67 69 70 72 78 80 81 83 86 87 85 83 77 71 56 56 52 51
47 48 49 51 53 51 54 56 56 56 56 57 62 58 66 70 68 68 59 53 51 54 59 64 65 70 72 74 75 78 82 82 85 90 93 92 89 85 79 74 64 60 56 55
51 53 53 55 56 58 59 61 60 60 61 62 65 65 65 71 71 64 57 54 54 59 65 68 70 73 76 77 79 82 84 86 91 95 97 93 89 85 82 74 68 63 60 58
55 56 58 59 61 63 65 66 66 64 66 65 67 67 69 71 63 57 53 57 59 64 69 72 74 76 78 80 82 85 89 93 98 99 96 94 91 87 79 76 72 67 65 60
59 61 63 64 66 69 72 74 74 69 71 71 71 68 72 66 56 58 57 59 61 66 71 74 76 78 81 84 87 91 96 99 100 100 97 95 90 85 80 78 72 72 70 65
63 62 66 67 71 74 76 78 82 81 76 73 74 75 71 62 63 63 64 64 66 69 74 78 82 83 87 91 94 98 102 102 102 99 94 91 90 88 83 77 76 74 70 68
68 65 68 72 75 79 79 81 84 87 84 80 76 74 64 66 67 69 71 71 72 74 78 81 85 88 92 96 99 102 103 103 98 91 93 91 89 89 85 85 81 77 74 70
76 74 75 78 82 84 86 86 88 89 86 83 79 71 70 74 77 78 80 80 81 84 86 89 91 95 97 101 103 105 103 97 93 93 91 91 91 88 87 83 82 78 75 73
83 83 81 84 87 89 90 89 90 90 90 91 85 76 80 81 82 85 87 89 91 92 94 97 100 100 101 103 105 103 98 94 93 93 91 93 92 91 87 83 83 81 77 76
89 91 88 89 90 90 90 89 90 92 91 88 83 77 84 89 90 92 95 96 98 99 101 102 103 105 106 107 104 98 96 97 95 95 94 93 93 91 89 87 86 85 83 81
87 89 87 84 86 88 86 86 86 84 81 78 84 88 92 94 96 98 100 102 104 105 107 108 108 108 110 107 104 101 100 97 97 97 97 96 95 95 93 91 90 90 89 86
87 83 83 78 77 78 75 78 81 87 89 90 88 92 98 98 100 103 105 106 108 109 109 112 111 111 111 109 108 106 104 102 102 103 101 100 98 97 96 95 94 93 92 90
87 87 89 88 88 89 86 86 90 95 95 99 93 99 100 101 105 107 108 109 110 112 114 114 115 115 114 108 106 105 107 106 107 106 104 102 102 102 100 98 96 96 96 95
91 92 94 90 94 96 90 92 98 100 99 100 101 103 104 107 110 112 114 115 115 116 118 119 118 115 111 109 110 110 110 108 106 106 105 106 106 104 103 101 100 99 100 100
98 101 104 100 102 102 94 98 100 103 103 103 106 111 113 114 117 119 120 119 121 121 116 113 111 112 113 112 113 112 111 108 107 106 107 108 106 103 102 102 103 103 102 101
105 108 110 109 109 108 105 103 107 108 109 110 113 116 117 118 120 120 123 118 117 114 110 113 116 114 113 115 116 115 112 110 109 109 108 106 105 105 106 105 104 102 99 95
111 115 117 116 116 115 112 114 115 116 116 115 116 116 117 118 119 118 116 118 119 119 118 117 118 116 115 116 115 114 114 114 112 111 109 108 107 107 106 102 99 96 92 88
115 117 120 119 122 123 118 118 119 118 114 116 115 115 116 118 117 115 116 119 122 123 123 124 119 117 115 115 113 114 113 112 111 111 110 109 107 102 99 96 93 89 86 83
117 120 121 122 123 123 120 118 117 117 115 115 115 116 118 118 118 121 124 124 126 126 126 121 119 118 117 117 115 115 113 112 111 110 107 104 100 97 93 89 86 83 81 79
118 118 115 118 120 121 117 119 122 122 119 118 119 121 123 124 123 124 126 128 128 126 123 121 120 119 119 116 114 113 113 111 108 106 102 98 94 91 87 83 82 79 77 74
120 120 119 119 122 120 123 124 126 126 127 128 126 127 128 129 129 129 129 127 124 122 123 122 119 118 117 115 114 111 109 105 102 99 96 92 88 85 83 80 77 75 73 70
128 128 130 130 127 128 126 127 129 131 131 132 133 133 133 132 129 128 126 125 124 124 123 120 119 119 118 116 113 109 103 99 94 90 87 85 82 79 77 74 73 72 73 70
127 127 128 130 132 133 134 133 133 134 135 135 133 128 128 128 126 124 125 124 123 121 120 120 119 117 114 110 107 103 97 92 88 86 83 80 78 76 75 74 72 69 70 67
135 136 136 135 134 132 135 136 136 135 135 134 135 134 131 128 127 126 125 124 124 123 121 118 115 111 108 104 99 94 90 87 85 83 80 79 77 76 73 71 71 70 67 66
Wind_Direction
299 301 303 309 312 309 310 311 312 313 317 320 322 320 322 324 325 326 327 317 317 319 320 319 319 321 321 323 322 322 321 320 320 320 320 321 321 321 322 323 317 315 315 306
299 300 301 306 307 306 304 306 309 313 315 318 320 321 320 320 322 324 325 313 316 316 315 315 317 319 319 319 319 320 322 321 321 322 320 319 320 318 320 322 318 317 322 316
296 298 300 302 303 304 302 302 306 310 314 316 316 319 318 318 319 321 319 310 307 309 309 312 314 315 316 317 316 319 321 321 321 320 319 318 317 319 319 323 320 324 322 315
296 297 298 299 299 300 300 303 305 308 311 313 313 317 314 312 316 316 312 308 304 307 309 310 312 314 315 314 315 317 319 320 319 319 318 315 317 320 320 322 326 324 319 313
296 297 298 297 298 299 300 301 304 308 310 312 311 314 312 313 315 312 308 308 307 307 308 308 311 312 311 311 313 314 316 317 317 316 316 317 319 319 322 324 321 321 317 308
294 295 295 297 298 299 300 302 305 308 310 310 310 312 309 313 310 310 308 308 309 308 307 306 308 309 309 310 312 314 316 316 315 315 317 319 320 322 321 320 316 313 312 310
293 295 296 297 299 300 301 303 304 305 306 309 311 309 307 309 305 304 303 305 306 304 305 306 308 309 310 314 314 315 315 315 315 317 319 319 320 318 317 315 312 311 308 307
290 292 294 296 298 301 302 304 305 306 306 308 309 309 309 303 301 301 305 306 304 305 305 308 309 308 311 313 313 313 315 317 317 318 318 317 317 315 313 310 309 307 305 304
289 290 292 294 296 298 299 300 302 303 306 307 308 306 303 301 301 304 304 303 304 304 306 307 306 308 310 313 314 314 316 317 317 315 314 314 313 312 310 309 308 308 306 303
291 291 292 293 294 296 297 300 301 302 304 303 307 303 301 301 304 304 303 304 306 306 306 307 309 313 314 313 314 315 316 316 313 312 312 311 310 310 309 307 305 304 303 301
289 289 290 291 292 294 296 299 300 301 302 302 303 299 301 301 303 303 306 308 307 307 309 312 312 312 311 313 315 316 315 314 312 310 310 309 309 309 307 304 302 301 300 299
290 290 290 289 291 292 294 297 298 299 298 299 298 298 299 302 305 307 308 308 308 310 311 311 310 310 312 313 313 313 312 311 310 310 310 309 309 309 307 304 302 301 300 298
289 291 292 292 292 292 295 297 298 297 297 299 300 302 301 303 306 307 307 307 308 308 308 308 309 310 311 312 312 311 311 310 309 310 310 309 308 308 307 305 302 300 299 297
287 290 293 295 294 293 294 296 299 299 299 298 302 300 301 303 304 304 304 305 305 304 305 306 307 308 308 308 309 310 309 310 310 310 309 307 306 306 305 303 301 299 297 295
287 290 293 294 294 295 296 298 300 297 298 298 300 300 299 301 300 301 300 301 302 302 303 305 305 306 306 308 308 310 310 309 309 308 307 306 305 304 302 301 300 299 297 295
288 291 291 292 293 293 295 297 295 297 297 298 298 297 298 297 297 298 298 300 301 302 302 303 303 305 305 307 307 308 308 307 306 305 305 305 304 302 300 299 298 297 295 294
288 289 290 291 291 291 294 292 293 293 294 295 296 296 297 296 296 296 297 298 299 301 303 303 303 304 306 306 306 307 306 306 305 305 304 303 301 300 297 296 295 294 294 293
288 287 288 289 290 290 290 291 291 292 293 293 293 293 293 295 296 297 298 299 299 300 302 303 303 305 304 305 305 304 304 303 303 302 300 299 299 298 298 297 296 295 295 294
286 287 288 289 289 290 291 290 290 290 291 293 293 293 293 295 297 298 299 300 301 302 302 302 303 303 304 304 304 303 302 302 302 301 301 300 299 299 298 297 296 295 294 292
285 287 288 289 289 290 290 290 290 290 291 291 292 294 294 296 297 297 299 300 301 302 304 305 304 303 303 302 302 302 302 301 302 301 300 299 300 299 298 297 296 294 293 292
284 283 284 284 286 289 289 289 290 290 291 292 293 295 297 298 299 301 302 303 303 303 303 304 303 302 302 302 302 301 302 302 301 301 300 300 299 298 297 296 294 293 292 291
282 283 284 285 287 290 292 292 294 294 293 294 297 299 300 300 301 301 301 302 302 302 302 302 302 301 301 300 301 302 302 302 302 301 300 299 299 297 296 295 293 292 291 290
282 285 285 285 286 289 290 291 293 294 295 296 298 298 299 299 299 299 300 300 300 300 300 300 301 301 301 302 303 302 302 302 302 301 300 299 297 296 294 294 293 292 290 289
284 286 287 287 287 288 289 290 292 293 294 294 295 296 297 298 298 298 299 299 300 300 301 301 301 302 303 303 302 303 303 303 301 299 298 296 296 295 294 293 292 291 291 290
284 284 285 286 287 287 288 289 291 292 292 293 295 295 295 296 297 298 299 299 300 300 300 301 302 302 303 303 303 303 302 301 301 300 299 298 297 296 295 294 292 291 289 288
283 284 285 286 286 287 287 288 290 291 292 293 295 296 296 297 298 298 299 299 300 301 301 301 302 303 303 303 302 302 302 302 301 300 299 298 297 296 294 293 291 289 287 286